Orbital Elements at Epoch 2459200.5 (2020-Dec-17.0) TDB
Reference: JPL 16 (heliocentric ecliptic J2000)
Element | Value | Uncertainty (1-sigma) | Units |
e | .1566542958941239 | 4.0086e-08 | |
a | 2.311362500460899 | 1.0262e-08 | au |
q | 1.949277635395115 | 9.448e-08 | au |
i | 3.924221706478794 | 4.848e-06 | deg |
node | 56.10925562797583 | 6.7026e-05 | deg |
peri | 131.440864746306 | 6.9054e-05 | deg |
M | 303.5838192321925 | 1.583e-05 | deg |
tp | 2459401.641508458832 (2021-Jul-06.14150846) | 5.647e-05 | TDB |
period | 1283.513737720066 3.51 | 8.5479e-06 2.34e-08 | d yr |
n | .2804800520791277 | 1.8679e-09 | deg/d |
Q | 2.673447365526683 | 1.187e-08 | au |
|
| | Orbit Determination Parameters
Additional Information
|